Powrót do katalogu

COSMOS 2442

GLONASS

AktywnyNawigacjaMEO
NORAD 33378·PAYLOAD·🇷🇺 Russia

Wystrzelony Sep 25, 2008 z Baikonur Cosmodrome

Loading…

Następne Przeloty (najbliższe 24 godziny)

TLE

ŚwieżeSource: Space-Track

Epoka: Sep 12, 2026, 16:42 UTC

1 33378U 08046A   26255.69632506 -.00000046  00000-0  00000-0 0  9990
2 33378  65.4079 311.8999 0017816 306.0837 211.0028  2.13109403139816

Śledź COSMOS 2442 w czasie rzeczywistym z AllMySat

Download on the App Store